Home   Weather   Ingolstadt   Past weeks

Flag for Germany Past Weather in Ingolstadt, Bavaria, Germany — Yesterday and Last 2 Weeks

48 °F

Passing clouds.

Feels Like: 45 °F
Forecast: 36 / 50 °F
Wind: 8 mph from West

Location: Ingolstadt Airport

Current Time: Oct 21, 2016 at 4:58:06 PM

Latest Report: Oct 21, 2016 at 4:20 PM

Visibility: N/A

Pressure: 29.95 "Hg

Humidity: 62%

Dew Point: 36 °F

Location of IngolstadtLocation

Past Weather in Ingolstadt — Graph


Ingolstadt Temperature Yesterday

Maximum temperature yesterday: 52 °F (at 2:20 PM)
Minimum temperature yesterday: 45 °F (at 2:20 AM)
Average temperature yesterday: 48 °F

High & Low Weather Summary for the Past Weeks

High66 °F (Oct 16, 3:20 PM)100% (Oct 9, 1:20 AM)30.24 "Hg (Oct 9, 1:20 AM)
Low32 °F (Oct 10, 3:20 AM)54% (Oct 9, 1:20 PM)29.71 "Hg (Oct 14, 8:20 PM)
Average47 °F85%30.07 "Hg
* Reported Oct 6 3:20 PM — Oct 21 3:20 PM, Ingolstadt, Weather by CustomWeather, © 2016

Note: Actual official high and low records may vary slightly from our data, if they occured in-between our weather recording intervals... More about our weather records


Ingolstadt Weather History for the Previous 24 Hours

Scroll right to see more
Time TempWeatherWind HumidityBarometerVisibility
3:20 PM
Fri, Oct 21
46 °FPartly sunny.7 mph66%29.95 "HgN/A
2:20 PM46 °FPartly sunny.7 mph71%29.95 "HgN/A
1:20 PM46 °FPartly sunny.6 mph71%29.95 "HgN/A
12:20 PM45 °FPartly sunny.3 mph81%29.95 "HgN/A
11:20 AM45 °FBroken clouds.6 mph76%29.95 "HgN/A
10:20 AM43 °FPartly sunny.7 mph81%29.95 "HgN/A
9:20 AM43 °FScattered clouds.5 mph81%29.95 "HgN/A
8:20 AM43 °FBroken clouds.6 mph87%29.92 "HgN/A
7:20 AM43 °FPassing clouds.9 mph87%29.89 "HgN/A
6:20 AM45 °FPassing clouds.7 mph87%29.89 "Hg4 mi
5:20 AM45 °FPartly cloudy.7 mph87%29.89 "HgN/A
4:20 AM45 °FQuite cool.5 mph81%29.89 "Hg3 mi
3:20 AM45 °FQuite cool.6 mph81%29.89 "Hg4 mi
2:20 AM45 °FQuite cool.6 mph76%29.89 "Hg4 mi
1:20 AM45 °FQuite cool.3 mph76%29.89 "Hg4 mi
12:20 AM45 °FQuite cool.6 mph76%29.92 "Hg4 mi
11:20 PM
Thu, Oct 20
46 °FCool.3 mph76%29.89 "Hg4 mi
10:20 PM46 °FCool.3 mph76%29.89 "Hg4 mi
9:20 PM48 °FCool.3 mph76%29.89 "Hg4 mi
8:20 PM48 °FPassing clouds.7 mph71%29.92 "HgN/A
7:20 PM48 °FPassing clouds.5 mph76%29.92 "HgN/A
6:20 PM50 °FPassing clouds.9 mph67%29.92 "HgN/A
5:20 PM52 °FPartly sunny.13 mph62%29.92 "HgN/A
4:20 PM52 °FPartly sunny.6 mph62%29.92 "HgN/A
Weather by CustomWeather, © 2016

See weather overviewHow to use our weather pages